Regional Weather Roundup
Issued by NWS Northern Indiana

Home | Current Version | Previous Version | Text Only | Print | Product List | Glossary On
Versions: 1 2 3 4 5 6 7 8 9 10 11 12 13 14 15 16 17 18 19 20 21 22 23 24 25 26 27 28 29 30 31 32 33 34 35 36 37 38 39 40 41 42 43 44 45 46 47 48 49 50
000
ASUS43 KIWX 051510
RWRIWX

KIWX WEATHER ROUNDUP
NATIONAL WEATHER SERVICE NORTHERN INDIANA
1100 AM EDT SAT SEP 05 2015

NOTE: "FAIR" INDICATES FEW OR NO CLOUDS BELOW 12,000 FEET WITH NO
SIGNIFICANT WEATHER AND/OR OBSTRUCTIONS TO VISIBILITY.

* THESE STATIONS ARE NOT UNDER NWS QUALITY CONTROL. THEY ALSO MAY NOT
  REPORT WEATHER SUCH AS PRECIPITATION OR FOG.

INZ001>027-051600-
NORTHERN INDIANA

CITY           SKY/WX    TMP DP  RH WIND       PRES   REMARKS
GARY*          TSTM      70  63  78 E7        30.15R
VALPARAISO     CLOUDY    71  65  81 N9        30.17R
MICHIGAN CITY* HVY RAIN  64  63  94 W16G35    30.17R
LAPORTE*       CLOUDY    75  64  68 NW12G30   30.18R THUNDER
KNOX*          CLOUDY    73  66  78 W8        30.15R
SOUTH BEND     MOSUNNY   76  67  73 NW9       30.16R
ELKHART*       MOSUNNY   79  68  69 W5        30.13R
GOSHEN         SUNNY     79  68  69 SW8       30.13S
MONTICELLO*    CLOUDY    70  70  98 CALM      30.14S
LOGANSPORT*    PTSUNNY   75  61  60 W8        30.16R
ROCHESTER*     MOSUNNY   81  70  69 W7        30.14S
WARSAW*        MOSUNNY   79  68  69 SW6       30.14R
ANGOLA*        PTSUNNY   77  70  78 SE6       30.15R
FORT WAYNE     TSTM      72  69  90 SE6       30.16S FOG
HUNTINGTON*    PTSUNNY   77  65  66 CALM      30.16R
PERU/GRISSOM   MOSUNNY   80  68  67 W12       30.14S
MARION*        PTSUNNY   78  60  53 SW8       30.17R

$$
INZ028>050-051600-
CENTRAL INDIANA

CITY           SKY/WX    TMP DP  RH WIND       PRES   REMARKS
LAFAYETTE      TSTM      70  66  87 S5        30.13F
KOKOMO*        MOSUNNY   79  66  65 W14       30.16S
MUNCIE*        SUNNY     78  65  63 SW6       30.16S
INDIANAPOLIS   MOSUNNY   78  66  66 S6        30.15S

$$
MIZ043>046-050>051-056>058-064>065-071>073-077>080-051600-
SOUTHWEST LOWER MICHIGAN

CITY           SKY/WX    TMP DP  RH WIND       PRES   REMARKS
BATTLE CREEK   TSTM      71  67  87 W17G28    30.18R FOG
BENTON HARBOR  TSTM      70  67  90 S8        30.14R
COLDWATER*     CLOUDY    76  68  77 NE6       30.16R
HILLSDALE*     PTSUNNY   74  68  83 S7        30.18R
HOLLAND        CLOUDY    71  68  90 SW3       30.11F
GRAND RAPIDS   PTSUNNY   71  69  93 S3        30.12S FOG
KALAMAZOO      RAIN      70  65  84 W15G24    30.16R
STURGIS*       SUNNY     79  70  73 SW7       30.13R
THREE RIVERS*  CLOUDY    76  67  74 NW12G21   30.16R

$$
OHZ001>008-015>018-024>025-051600-
NORTHWEST OHIO

CITY           SKY/WX    TMP DP  RH WIND       PRES   REMARKS
WAUSEON*       CLOUDY    72  70  94 S13G22    30.18S
DEFIANCE       CLOUDY    73  64  73 SE6       30.19R
FINDLAY        LGT RAIN  69  66  90 SW5       30.18F
TOLEDO EXPRESS CLOUDY    69  66  90 VRB7      30.18R
TOLEDO METCALF LGT RAIN  68  65  90 S12       30.18F
LIMA           PTSUNNY   70  65  84 SE6       30.19R

$$
AND FOR LAKE MICHIGAN COASTAL AND OPEN LAKE BUOY OBSERVATIONS

STATION/POSITION TEMP    WIND        PRES    VSBY  WAVE
                 AIR SEA DIR/SP/G                  HT/PER
                 (F)     (DEG/KT/KT) (MB)    (MI)  (FT/S)
CALUMET HARBOR    70      50/ 11/ 13   N/A
MICHIGAN CITY     74     200/ 11/ 12   N/A
BURNS HARBOR      67     300/ 28     1020.3R
SAINT JOSEPH      68     140/  3/  9 1021.7R
SOUTH LAKE BUOY   71 71  190/ 10/ 12 1018.4R         0
4 MI NW BRIDGMAN  72 73   CALM  /  6   N/A           1/ 2
MICHIGAN CITY     68 73  230/ 10/ 19   N/A           3/ 3

$$
&&



USA.gov is the U.S. government's official web portal to all federal, state and local government web resources and services.